Torna al catalogo

SL-12 DEB

AttivoUNKNOWN
NORAD 26795·DEBRIS·🇷🇺 Russia

Lanciato Nov 23, 1990 da Baikonur Cosmodrome

Loading…

Prossimi Passaggi (prossime 24 ore)

TLE

AggiornatoSource: Space-Track

Epoca: Sep 14, 2026, 06:47 UTC

1 26795U 90102G   26257.28317291  .00053637  00000-0  17466+0 0  9993
2 26795  46.2870 354.3709 1950172 187.8593 168.6716 10.29583585153151

Traccia SL-12 DEB in tempo reale con AllMySat

Download on the App Store